Weather History for KMAI - February, 2013

Change the Weather History Date:

Monday, February 11, 2013

  Actual Average Record
Temperature  
Mean Temperature 69 °F 54 °F  
Max Temperature 79 °F 65 °F - ()
Min Temperature 58 °F 42 °F - ()
Degree Days  
Heating Degree Days 0    
Month to date heating degree days 94  
Since 1 July heating degree days 820  
Cooling Degree Days 4    
Month to date cooling degree days 4  
Year to date cooling degree days 57  
Growing Degree Days 20 (Base 50)    
Moisture  
Dew Point 63 °F    
Average Humidity 80    
Maximum Humidity 93    
Minimum Humidity 67    
Precipitation  
Precipitation 0.22 in 0.16 in - ()
Month to date precipitation 2.50 1.86  
Year to date precipitation 3.46 6.90  
Sea Level Pressure  
Sea Level Pressure 30.07 in    
Wind  
Wind Speed 9 mph (ENE)    
Max Wind Speed 28 mph    
Max Gust Speed 40 mph    
Visibility 9 miles    
Events Rain , Thunderstorm    
T = Trace of Precipitation, MM = Missing Value Source: NWS Daily Summary

Daily Weather History Graph

Daily Weather History Graph

Search for Another Location

Airport or City:

Trip Planner

Search our weather history database for the weather conditions in past years. The results will help you decide how hot, cold, wet, or windy it might be!

Date:

Astronomy

Feb. 11, 2013 Rise Set
Actual Time 6:24 AM CST 5:25 PM CST
Civil Twilight 6:00 AM CST 5:50 PM CST
Nautical Twilight 5:31 AM CST 6:18 PM CST
Astronomical Twilight 5:03 AM CST 6:46 PM CST
Moon 6:58 AM CST (2/11) 7:09 PM CST (2/11)
Length of Visible Light 11h 50m
Length of Day
11h 00m
Waxing Crescent, 3% of the Moon is Illuminated
Feb 11
Waxing Crescent
Feb 17
First Quarter
Feb 25
Full
Mar 4
Last Quarter
Mar 11
New

Hourly Weather History & Observations

Time (CST) Temp. Dew Point Humidity Pressure Visibility Wind Dir Wind Speed Gust Speed Precip Events Conditions
12:53 AM 64.9 °F 61.0 °F 87% 30.05 in 10.0 mi SE 8.1 mph - 0.01 in   Overcast
1:03 AM 64.4 °F 62.6 °F 94% 30.04 in 10.0 mi SSE 6.9 mph - N/A   Mostly Cloudy
1:53 AM 64.9 °F 62.1 °F 90% 30.06 in 10.0 mi North 4.6 mph - N/A   Overcast
2:15 AM 64.4 °F 62.6 °F 94% 30.05 in 10.0 mi North 9.2 mph - N/A Thunderstorm Overcast
2:27 AM 64.4 °F 62.6 °F 94% 30.05 in 10.0 mi ESE 3.5 mph - N/A Thunderstorm Overcast
2:36 AM 64.4 °F 62.6 °F 94% 30.04 in 10.0 mi SE 4.6 mph - N/A   Overcast
2:48 AM 64.4 °F 62.6 °F 94% 30.05 in 10.0 mi Calm Calm - N/A   Overcast
2:53 AM 64.9 °F 62.1 °F 90% 30.05 in 10.0 mi Calm Calm - N/A   Overcast
3:53 AM 66.9 °F 63.0 °F 87% 30.06 in 10.0 mi Variable 4.6 mph - N/A   Overcast
4:53 AM 69.1 °F 64.0 °F 84% 30.05 in 10.0 mi South 10.4 mph - N/A   Overcast
5:53 AM 69.1 °F 64.9 °F 87% 30.07 in 10.0 mi SSW 9.2 mph - N/A   Overcast
6:53 AM 69.1 °F 64.9 °F 87% 30.07 in 10.0 mi South 11.5 mph - N/A   Partly Cloudy
7:38 AM 69.8 °F 64.4 °F 83% 30.09 in 10.0 mi South 12.7 mph 21.9 mph N/A   Mostly Cloudy
7:53 AM 70.0 °F 64.9 °F 84% 30.09 in 10.0 mi South 10.4 mph - N/A   Overcast
8:08 AM 69.8 °F 64.4 °F 83% 30.09 in 10.0 mi South 13.8 mph 20.7 mph N/A   Overcast
8:53 AM 72.0 °F 64.9 °F 78% 30.10 in 10.0 mi South 12.7 mph - N/A   Overcast
9:53 AM 73.9 °F 64.9 °F 73% 30.11 in 10.0 mi SSW 15.0 mph 23.0 mph N/A   Overcast
10:53 AM 75.0 °F 66.0 °F 73% 30.10 in 10.0 mi SSW 13.8 mph - N/A   Overcast
11:53 AM 78.1 °F 66.0 °F 66% 30.06 in 10.0 mi SSW 16.1 mph 25.3 mph N/A   Mostly Cloudy
12:07 PM 78.8 °F 66.2 °F 65% 30.07 in 10.0 mi SW 20.7 mph 26.5 mph N/A   Mostly Cloudy
12:39 PM 77.0 °F 66.2 °F 69% 30.05 in 10.0 mi SSW 16.1 mph 26.5 mph 0.00 in Rain , Thunderstorm Light Rain
12:53 PM 79.0 °F 66.0 °F 64% 30.05 in 10.0 mi SW 18.4 mph 28.8 mph 0.00 in Thunderstorm Mostly Cloudy
1:02 PM 69.8 °F 64.4 °F 83% 30.07 in 10.0 mi NW 12.7 mph 40.3 mph 0.00 in Rain , Thunderstorm Light Rain
1:41 PM 66.2 °F 64.4 °F 94% 30.07 in 10.0 mi NW 11.5 mph - 0.01 in Rain Light Rain
1:49 PM 66.2 °F 64.4 °F 94% 30.07 in 2.5 mi NNW 11.5 mph - 0.06 in Rain , Thunderstorm Heavy Thunderstorms and Rain
1:53 PM 64.9 °F 64.0 °F 97% 30.06 in 2.0 mi North 11.5 mph - 0.10 in Rain , Thunderstorm Heavy Thunderstorms and Rain
2:00 PM 64.4 °F 64.4 °F 100% 30.06 in 1.8 mi NNW 6.9 mph - 0.05 in Rain , Thunderstorm Heavy Thunderstorms and Rain
2:06 PM 66.2 °F 64.4 °F 94% 30.06 in 2.5 mi NNE 5.8 mph - 0.06 in Rain , Thunderstorm Rain
2:13 PM 66.2 °F 64.4 °F 94% 30.06 in 5.0 mi Variable 6.9 mph - 0.06 in Rain , Thunderstorm Light Rain
2:29 PM 66.2 °F 64.4 °F 94% 30.06 in 10.0 mi NNE 6.9 mph - 0.06 in   Overcast
2:41 PM 66.2 °F 64.4 °F 94% 30.06 in 10.0 mi North 9.2 mph - 0.06 in   Overcast
2:53 PM 66.9 °F 64.9 °F 93% 30.06 in 10.0 mi NNE 6.9 mph - 0.06 in   Overcast
3:13 PM 66.2 °F 64.4 °F 94% 30.06 in 7.0 mi NNE 6.9 mph - 0.01 in Rain Light Rain
3:53 PM 64.9 °F 63.0 °F 93% 30.06 in 10.0 mi North 6.9 mph - 0.03 in Rain Light Rain
4:53 PM 63.0 °F 59.0 °F 87% 30.06 in 10.0 mi NE 9.2 mph - 0.00 in Rain Light Rain
5:53 PM 62.1 °F 60.1 °F 93% 30.07 in 10.0 mi ENE 6.9 mph - 0.01 in   Overcast
6:53 PM 62.1 °F 57.9 °F 86% 30.08 in 10.0 mi NE 9.2 mph - 0.00 in   Overcast
7:53 PM 62.1 °F 57.0 °F 84% 30.08 in 10.0 mi NE 8.1 mph - N/A   Overcast
8:53 PM 60.1 °F 55.9 °F 86% 30.11 in 10.0 mi NNE 11.5 mph - 0.01 in Rain Light Rain
9:02 PM 60.8 °F 55.4 °F 82% 30.11 in 10.0 mi NNE 8.1 mph - 0.00 in   Overcast
9:46 PM 60.8 °F 55.4 °F 82% 30.09 in 10.0 mi ENE 8.1 mph - 0.00 in   Overcast
10:53 PM 60.1 °F 55.9 °F 86% 30.07 in 10.0 mi East 5.8 mph - N/A   Overcast
11:53 PM 60.1 °F 57.0 °F 90% 30.05 in 10.0 mi ESE 5.8 mph - N/A   Overcast